Weather History for Montreal Mirabel, QC

Change the Weather History Date:

Wednesday, September 14, 2011

  Actual Average Record
Temperature  
Mean Temperature 58 °F -  
Max Temperature 66 °F 68 °F 86 °F (2003)
Min Temperature 51 °F 49 °F 41 °F (2014)
Degree Days  
Heating Degree Days 6    
Growing Degree Days 8 (Base 50)    
Moisture  
Dew Point 48 °F    
Average Humidity 69    
Maximum Humidity 88    
Minimum Humidity 52    
Precipitation  
Precipitation 0.00 in - - ()
Sea Level Pressure  
Sea Level Pressure 29.91 in    
Wind  
Wind Speed 4 mph ()    
Max Wind Speed 13 mph    
Max Gust Speed -    
Visibility 20.0 miles    
Events      
Averages and records for this station are not official NWS values.
T = Trace of Precipitation, MM = Missing Value Source: Averaged Metar Reports

Daily Weather History Graph

Daily Weather History Graph

Search for Another Location

Airport:

Trip Planner

Search our weather history database for the weather conditions in past years. The results will help you decide how hot, cold, wet, or windy it might be!

Date:

Astronomy

Sep. 14, 2011 Rise Set
Actual Time 6:32 AM EDT 7:09 PM EDT
Civil Twilight 6:02 AM EDT 7:39 PM EDT
Nautical Twilight 5:27 AM EDT 8:15 PM EDT
Astronomical Twilight 4:50 AM EDT 8:51 PM EDT
Moon 7:41 PM EDT (9/14) 8:52 AM EDT (9/14)
Length of Visible Light 13h 36m
Length of Day
12h 36m
Waning Gibbous, 95% of the Moon is Illuminated
Sep 14
Waning Gibbous
Sep 20
Last Quarter
Sep 27
New
Oct 3
First Quarter
Oct 11
Full

Hourly Weather History & Observations

Time (EDT) Temp. Dew Point Humidity Pressure Visibility Wind Dir Wind Speed Gust Speed Precip Events Conditions
12:00 AM 62.6 °F 55.4 °F 77% 29.78 in 20.0 mi NW 2.3 mph - N/A   Mostly Cloudy
1:00 AM 60.8 °F 53.6 °F 77% 29.80 in 20.0 mi West 5.8 mph - N/A   Mostly Cloudy
2:00 AM 57.2 °F 51.8 °F 82% 29.81 in 20.0 mi West 4.6 mph - N/A   Mostly Cloudy
3:00 AM 55.4 °F 51.8 °F 88% 29.82 in 20.0 mi WSW 4.6 mph - N/A   Mostly Cloudy
4:00 AM 55.4 °F 50.0 °F 82% 29.84 in 20.0 mi West 2.3 mph - N/A   Mostly Cloudy
5:00 AM 53.6 °F 48.2 °F 82% 29.87 in 20.0 mi WSW 3.5 mph - N/A   Mostly Cloudy
6:00 AM 53.6 °F 48.2 °F 82% 29.88 in 20.0 mi West 3.5 mph - N/A   Mostly Cloudy
7:00 AM 51.8 °F 46.4 °F 82% 29.91 in 20.0 mi Calm Calm - N/A   Mostly Cloudy
9:00 AM 55.4 °F 46.4 °F 72% 29.94 in 25.0 mi North 5.8 mph - N/A   Mostly Cloudy
10:00 AM 55.4 °F 42.8 °F 63% 29.95 in 25.0 mi North 4.6 mph - N/A   Mostly Cloudy
11:00 AM 59.0 °F 46.4 °F 63% 29.96 in 45.0 mi WSW 4.6 mph - N/A   Scattered Clouds
12:00 PM 60.8 °F 44.6 °F 55% 29.95 in 35.0 mi West 10.4 mph - N/A   Scattered Clouds
1:00 PM 60.8 °F 44.6 °F 55% 29.95 in 45.0 mi WSW 8.1 mph - N/A   Mostly Cloudy
2:00 PM 62.6 °F 46.4 °F 55% 29.96 in 45.0 mi West 11.5 mph - N/A   Mostly Cloudy
3:00 PM 64.4 °F 48.2 °F 56% 29.95 in 45.0 mi SSW 12.7 mph - N/A   Scattered Clouds
4:00 PM 66.2 °F 48.2 °F 52% 29.94 in 45.0 mi SW 2.3 mph - N/A   Scattered Clouds
5:00 PM 66.2 °F 48.2 °F 52% 29.93 in 45.0 mi SW 6.9 mph - N/A   Partly Cloudy
6:00 PM 64.4 °F 48.2 °F 56% 29.93 in 45.0 mi South 5.8 mph - N/A   Partly Cloudy
7:00 PM 60.8 °F 50.0 °F 68% 29.94 in 40.0 mi Calm Calm - N/A   Partly Cloudy
8:00 PM 59.0 °F 48.2 °F 67% 29.95 in 25.0 mi South 2.3 mph - N/A   Scattered Clouds
9:00 PM 57.2 °F 48.2 °F 72% 29.94 in 25.0 mi South 5.8 mph - N/A   Scattered Clouds
10:00 PM 55.4 °F 48.2 °F 77% 29.94 in 25.0 mi SSW 4.6 mph - N/A   Mostly Cloudy
11:00 PM 55.4 °F 48.2 °F 77% 29.95 in 25.0 mi WNW 3.5 mph - N/A   Overcast